Sabadell Airport

Jump to: basic info | weather | runways | comments

Related pages: nearby airports | nearby navaids | notams | map

Basic information (top)

Codes: QSA LELL
Location: lon 41.520901, lat 2.105080, elev 485 ft / 148 m msl
Status: small_airport

Weather (top)

Current conditions (rec'd 2014/07/28 16:00Z):

LELL 281600Z 06003KT 030V110 9999 -RA VCSH FEW015 SCT025 FEW040TCU BKN046 24/21 Q1013

Airport forecast (rec'd 2014/07/28 15:00Z):

TAF LELL 281400Z 2815/2915 07007KT 9999 FEW012 TX27/2913Z TN16/2905Z 
      TEMPO 2815/2818 19010KT PROB40 
      TEMPO 2815/2915 FEW020 FEW025CB PROB30 
      TEMPO 2815/2903 4000 TSRA FEW025CB PROB40 
      TEMPO 2819/2824 BKN013 
      BECMG 2902/2904 VRB04KT

Runways (top)

13/31: 2,953 ft (900 m) — surface unknown — not lighted

Latest comments (top)

Great service, easy in & out: Here our expenses for 3 days in ... [read]

great service, great people: So going on a helicopter through spain ... [read]

More... (top)

See also NOTAMs and nearby airports and navaids, or visit the Sabadell Airport page at the main OurAirports website..